Location: Ariel
(45.9570°N, 122.5700°W)
Time: 11:27:15
(UTC-07:00)

Vanguard 3 - Pass Details

Date: 29 August 2019
Orbit: 508 x 3263 km, 33.4° (Epoch: 21 September)

Event Time Altitude Azimuth Distance (km) Brightness Sun altitude
Rises 17:52:31 0° 252° (WSW) 5,612 13.0 20.2°
Reaches altitude 10° 17:57:19 10° 245° (WSW) 4,108 12.4 19.4°
Maximum altitude 18:05:46 32° 188° (S) 1,944 9.4 17.9°
Drops below altitude 10° 18:11:05 10° 127° (SE) 2,527 9.3 17.0°
Sets 18:13:21 0° 116° (ESE) 3,219 9.7 16.6°
